DHX100 OBBI-OPLA

Flight info

Callsign DHX100
Flight time 3h 11m
Altitude 33000
Route BHR N697 SODAK P559 AMBOV Q322 LOVEM Q572 SERSA P307 TONVO A777 NADSO B505 PG G214 BIREX J132 IDEBA G214 SK J173 RK G214 MURLI J112 NITIV G201 VEREN
Aircraft B77L/H-SDE1E2E3FGHIJ2J3J4J5M1RWXY/LB1D1

Departure

Time 2026-05-09 09:37
Airport Bahrain International Airport (OBBI)

Arrival

Time 2026-05-09 12:49
Airport Allama Iqbal International Airport (OPLA)
Time Latitude Longitude Altitude Speed Heading
2026-05-09 09:06 26.27454 50.62007 21 ft 0 kts 212°
2026-05-09 09:23 26.27465 50.62015 21 ft 4 kts 212°
2026-05-09 09:23 26.27488 50.62031 21 ft 3 kts 213°
2026-05-09 09:24 26.27506 50.62045 21 ft 4 kts 229°
2026-05-09 09:24 26.27514 50.62067 21 ft 4 kts 292°
2026-05-09 09:24 26.27515 50.62068 21 ft 4 kts 301°
2026-05-09 09:24 26.27513 50.62049 21 ft 4 kts 231°
2026-05-09 09:25 26.27508 50.62046 21 ft 3 kts 215°
2026-05-09 09:25 26.27518 50.62061 21 ft 4 kts 294°
2026-05-09 09:25 26.27505 50.62086 21 ft 4 kts 303°
2026-05-09 09:25 26.27491 50.62109 21 ft 2 kts 303°
2026-05-09 09:26 26.27490 50.62111 21 ft 0 kts 303°
2026-05-09 09:28 26.27491 50.62110 21 ft 2 kts 303°
2026-05-09 09:28 26.27504 50.62087 21 ft 4 kts 303°
2026-05-09 09:28 26.27518 50.62063 21 ft 4 kts 302°
2026-05-09 09:29 26.27533 50.62039 21 ft 4 kts 312°
2026-05-09 09:29 26.27558 50.62037 21 ft 4 kts 17°
2026-05-09 09:29 26.27582 50.62050 21 ft 4 kts 30°
2026-05-09 09:29 26.27603 50.62069 21 ft 4 kts 44°
2026-05-09 09:30 26.27608 50.62097 21 ft 4 kts 99°
2026-05-09 09:30 26.27600 50.62127 21 ft 4 kts 110°
2026-05-09 09:30 26.27587 50.62155 21 ft 4 kts 118°
2026-05-09 09:30 26.27574 50.62181 21 ft 4 kts 119°
2026-05-09 09:31 26.27559 50.62208 20 ft 4 kts 125°
2026-05-09 09:31 26.27539 50.62241 20 ft 10 kts 124°
2026-05-09 09:31 26.27477 50.62343 21 ft 18 kts 123°
2026-05-09 09:32 26.27317 50.62622 22 ft 23 kts 123°
2026-05-09 09:32 26.27232 50.62772 23 ft 23 kts 122°
2026-05-09 09:32 26.27143 50.62918 26 ft 23 kts 128°
2026-05-09 09:32 26.27052 50.63063 26 ft 23 kts 123°
2026-05-09 09:33 26.26967 50.63212 23 ft 23 kts 122°
2026-05-09 09:33 26.26881 50.63361 24 ft 23 kts 122°
2026-05-09 09:33 26.26795 50.63510 23 ft 23 kts 123°
2026-05-09 09:33 26.26709 50.63658 25 ft 23 kts 123°
2026-05-09 09:34 26.26622 50.63806 25 ft 23 kts 123°
2026-05-09 09:34 26.26535 50.63954 26 ft 23 kts 123°
2026-05-09 09:34 26.26450 50.64103 24 ft 23 kts 122°
2026-05-09 09:36 26.26139 50.64990 23 ft 11 kts 327°
2026-05-09 09:36 26.26194 50.64898 22 ft 26 kts 303°
2026-05-09 09:36 26.26393 50.64558 18 ft 85 kts 302°
2026-05-09 09:37 26.26828 50.63803 21 ft 143 kts 302°
2026-05-09 09:37 26.27450 50.62716 52 ft 183 kts 304°
2026-05-09 09:37 26.28155 50.61540 527 ft 183 kts 302°
2026-05-09 09:37 26.28860 50.60353 1078 ft 184 kts 303°
2026-05-09 09:38 26.29580 50.59162 1705 ft 189 kts 303°
2026-05-09 09:38 26.30349 50.57881 2124 ft 209 kts 303°
2026-05-09 09:38 26.31229 50.56410 2128 ft 245 kts 303°
2026-05-09 09:38 26.32197 50.54809 2867 ft 247 kts 303°
2026-05-09 09:39 26.33164 50.53236 3850 ft 247 kts 305°
2026-05-09 09:39 26.34326 50.51805 4432 ft 260 kts 324°
2026-05-09 09:39 26.36069 50.51162 4937 ft 272 kts
2026-05-09 09:39 26.37896 50.51708 5729 ft 279 kts 32°
2026-05-09 09:40 26.39266 50.53228 6542 ft 281 kts 58°
2026-05-09 09:40 26.40263 50.55116 7228 ft 287 kts 58°
2026-05-09 09:40 26.41351 50.57003 8026 ft 291 kts 56°
2026-05-09 09:40 26.42505 50.58866 8868 ft 293 kts 54°
2026-05-09 09:41 26.43710 50.60726 9652 ft 297 kts 53°
2026-05-09 09:41 26.44954 50.62590 10379 ft 303 kts 53°
2026-05-09 09:41 26.46267 50.64519 10713 ft 324 kts 52°
2026-05-09 09:41 26.47695 50.66588 10903 ft 348 kts 52°
2026-05-09 09:42 26.49212 50.68766 11080 ft 370 kts 52°
2026-05-09 09:42 26.50839 50.71087 11426 ft 386 kts 52°
2026-05-09 09:42 26.52522 50.73481 11951 ft 396 kts 52°
2026-05-09 09:42 26.54240 50.75920 12609 ft 401 kts 52°
2026-05-09 09:43 26.55971 50.78378 13299 ft 404 kts 52°
2026-05-09 09:43 26.57720 50.80861 13908 ft 409 kts 52°
2026-05-09 09:43 26.59486 50.83371 14512 ft 413 kts 52°
2026-05-09 09:43 26.61269 50.85906 15091 ft 417 kts 52°
2026-05-09 09:44 26.63068 50.88466 15636 ft 421 kts 52°
2026-05-09 09:44 26.64884 50.91050 16151 ft 425 kts 52°
2026-05-09 09:44 26.66715 50.93659 16643 ft 428 kts 52°
2026-05-09 09:44 26.68562 50.96292 17114 ft 432 kts 52°
2026-05-09 09:45 26.70423 50.98947 17564 ft 435 kts 52°
2026-05-09 09:45 26.72303 51.01629 17993 ft 439 kts 52°
2026-05-09 09:45 26.74191 51.04326 18399 ft 440 kts 52°
2026-05-09 09:45 26.75767 51.07244 18563 ft 443 kts 70°
2026-05-09 09:46 26.76366 51.10599 18843 ft 447 kts 88°
2026-05-09 09:46 26.76114 51.14061 19239 ft 448 kts 103°
2026-05-09 09:46 26.75164 51.17368 19546 ft 448 kts 110°
2026-05-09 09:46 26.74061 51.20648 19780 ft 453 kts 111°
2026-05-09 09:47 26.72938 51.23960 20093 ft 455 kts 111°
2026-05-09 09:47 26.71824 51.27292 20437 ft 457 kts 110°
2026-05-09 09:47 26.70731 51.30630 20758 ft 459 kts 110°
2026-05-09 09:47 26.69641 51.34004 21049 ft 462 kts 110°
2026-05-09 09:48 26.68551 51.37399 21324 ft 464 kts 110°
2026-05-09 09:48 26.67459 51.40798 21594 ft 467 kts 110°
2026-05-09 09:48 26.66355 51.44226 21862 ft 469 kts 110°
2026-05-09 09:48 26.65261 51.47625 22121 ft 471 kts 110°
2026-05-09 09:49 26.64149 51.51085 22374 ft 473 kts 110°
2026-05-09 09:49 26.63035 51.54553 22619 ft 475 kts 110°
2026-05-09 09:49 26.61916 51.58035 22855 ft 477 kts 110°
2026-05-09 09:49 26.60791 51.61531 23086 ft 479 kts 110°
2026-05-09 09:50 26.59661 51.65041 23310 ft 481 kts 110°
2026-05-09 09:50 26.58522 51.68573 23529 ft 483 kts 110°
2026-05-09 09:50 26.57381 51.72100 23740 ft 485 kts 110°
2026-05-09 09:50 26.56223 51.75653 23945 ft 487 kts 110°
2026-05-09 09:51 26.55069 51.79213 24144 ft 488 kts 110°
2026-05-09 09:51 26.53919 51.82789 24337 ft 490 kts 110°
2026-05-09 09:51 26.52765 51.86375 24525 ft 492 kts 110°
2026-05-09 09:51 26.51593 51.89978 24707 ft 493 kts 110°
2026-05-09 09:52 26.50400 51.93567 24882 ft 495 kts 111°
2026-05-09 09:52 26.49189 51.97179 25054 ft 496 kts 111°
2026-05-09 09:52 26.47977 52.00794 25188 ft 499 kts 111°
2026-05-09 09:52 26.46776 52.04386 25340 ft 500 kts 110°
2026-05-09 09:53 26.45561 52.08026 25522 ft 501 kts 110°
2026-05-09 09:53 26.44341 52.11681 25684 ft 502 kts 110°
2026-05-09 09:53 26.43116 52.15344 25739 ft 505 kts 111°
2026-05-09 09:53 26.41883 52.19020 25908 ft 506 kts 111°
2026-05-09 09:54 26.40649 52.22694 26109 ft 506 kts 111°
2026-05-09 09:54 26.39408 52.26386 26270 ft 506 kts 111°
2026-05-09 09:54 26.38170 52.30069 26389 ft 508 kts 111°
2026-05-09 09:54 26.36926 52.33766 26495 ft 510 kts 111°
2026-05-09 09:55 26.35677 52.37476 26561 ft 512 kts 111°
2026-05-09 09:55 26.34409 52.41136 26654 ft 513 kts 112°
2026-05-09 09:55 26.33022 52.44796 26954 ft 511 kts 114°
2026-05-09 09:55 26.31591 52.48433 27213 ft 511 kts 114°
2026-05-09 09:56 26.30157 52.52070 27247 ft 514 kts 114°
2026-05-09 09:56 26.28726 52.55742 27269 ft 517 kts 114°
2026-05-09 09:56 26.27317 52.59433 27329 ft 518 kts 112°
2026-05-09 09:56 26.25929 52.63142 27429 ft 519 kts 113°
2026-05-09 09:57 26.24493 52.66833 27544 ft 519 kts 114°
2026-05-09 09:57 26.23049 52.70532 27648 ft 520 kts 114°
2026-05-09 09:57 26.21620 52.74235 27734 ft 521 kts 113°
2026-05-09 09:57 26.20216 52.77899 27788 ft 522 kts 113°
2026-05-09 09:58 26.18791 52.81623 27846 ft 523 kts 113°
2026-05-09 09:58 26.17363 52.85351 27932 ft 524 kts 113°
2026-05-09 09:58 26.15932 52.89079 28023 ft 524 kts 113°
2026-05-09 09:59 26.13058 52.96546 28189 ft 524 kts 113°
2026-05-09 09:59 26.10176 53.04020 28284 ft 526 kts 113°
2026-05-09 10:00 26.07377 53.11549 28453 ft 526 kts 112°
2026-05-09 10:00 26.04633 53.19106 28585 ft 527 kts 112°
2026-05-09 10:01 26.01888 53.26610 28728 ft 527 kts 112°
2026-05-09 10:01 25.99104 53.34165 28805 ft 528 kts 112°
2026-05-09 10:02 25.96349 53.41756 28889 ft 529 kts 111°
2026-05-09 10:02 25.95061 53.45575 29018 ft 528 kts 111°
2026-05-09 10:02 25.93723 53.49355 29268 ft 524 kts 112°
2026-05-09 10:02 25.92372 53.53111 29507 ft 521 kts 111°
2026-05-09 10:03 25.91085 53.56858 29747 ft 518 kts 111°
2026-05-09 10:03 25.89825 53.60596 29987 ft 515 kts 111°
2026-05-09 10:03 25.88567 53.64320 30227 ft 513 kts 111°
2026-05-09 10:03 25.87307 53.68005 30466 ft 510 kts 111°
2026-05-09 10:04 25.86040 53.71683 30707 ft 508 kts 111°
2026-05-09 10:04 25.84771 53.75340 30947 ft 505 kts 111°
2026-05-09 10:04 25.83520 53.78929 31184 ft 503 kts 111°
2026-05-09 10:04 25.82226 53.82526 31425 ft 500 kts 112°
2026-05-09 10:05 25.80888 53.86081 31664 ft 498 kts 113°
2026-05-09 10:05 25.79575 53.89627 31904 ft 496 kts 112°
2026-05-09 10:05 25.78715 53.92018 32065 ft 494 kts 111°
2026-05-09 10:05 25.77071 53.96706 32381 ft 491 kts 111°
2026-05-09 10:06 25.75841 54.00240 32557 ft 490 kts 111°
2026-05-09 10:06 25.73887 54.06223 32575 ft 495 kts 109°
2026-05-09 10:07 25.71704 54.13500 32614 ft 500 kts 109°
2026-05-09 10:07 25.69473 54.20840 32653 ft 504 kts 109°
2026-05-09 10:08 25.67188 54.28170 32685 ft 508 kts 109°
2026-05-09 10:08 25.66034 54.31870 32814 ft 507 kts 109°
2026-05-09 10:08 25.64890 54.35560 32931 ft 507 kts 109°
2026-05-09 10:09 25.62625 54.42962 32991 ft 505 kts 109°
2026-05-09 10:09 25.60387 54.50282 33001 ft 502 kts 109°
2026-05-09 10:10 25.58164 54.57517 32986 ft 492 kts 109°
2026-05-09 10:10 25.55901 54.64652 33004 ft 490 kts 110°
2026-05-09 10:11 25.53585 54.71751 33001 ft 490 kts 110°
2026-05-09 10:11 25.51427 54.78891 33001 ft 489 kts 104°
2026-05-09 10:12 25.50223 54.86297 33009 ft 488 kts 99°
2026-05-09 10:12 25.49194 54.93676 33000 ft 488 kts 99°
2026-05-09 10:13 25.48111 55.01086 33001 ft 487 kts 99°
2026-05-09 10:13 25.47000 55.08510 33001 ft 489 kts 99°
2026-05-09 10:14 25.45892 55.15904 32995 ft 490 kts 99°
2026-05-09 10:14 25.44623 55.23289 32981 ft 488 kts 105°
2026-05-09 10:15 25.42252 55.30323 33007 ft 488 kts 115°
2026-05-09 10:15 25.40427 55.34523 33005 ft 489 kts 116°
2026-05-09 10:16 25.39555 55.36531 33002 ft 490 kts 116°
2026-05-09 10:16 25.36640 55.43344 33002 ft 488 kts 115°
2026-05-09 10:17 25.33786 55.50102 33001 ft 488 kts 115°
2026-05-09 10:17 25.30914 55.56895 33002 ft 488 kts 115°
2026-05-09 10:18 25.28053 55.63703 33001 ft 488 kts 113°
2026-05-09 10:18 25.26021 55.70851 33010 ft 488 kts 102°
2026-05-09 10:19 25.25120 55.78247 33007 ft 490 kts 96°
2026-05-09 10:19 25.24382 55.85758 33004 ft 492 kts 96°
2026-05-09 10:20 25.23535 55.93337 33015 ft 503 kts 99°
2026-05-09 10:20 25.22630 56.01085 33012 ft 514 kts 98°
2026-05-09 10:21 25.21725 56.08957 33005 ft 517 kts 99°
2026-05-09 10:21 25.20168 56.16645 33003 ft 515 kts 110°
2026-05-09 10:22 25.17734 56.24043 33003 ft 510 kts 111°
2026-05-09 10:22 25.15328 56.31388 32997 ft 508 kts 111°
2026-05-09 10:23 25.12973 56.38730 33001 ft 506 kts 111°
2026-05-09 10:23 25.10635 56.46036 33007 ft 504 kts 111°
2026-05-09 10:24 25.08329 56.53358 33001 ft 505 kts 108°
2026-05-09 10:24 25.06783 56.60873 33001 ft 508 kts 102°
2026-05-09 10:25 25.05400 56.68535 33007 ft 509 kts 103°
2026-05-09 10:25 25.03968 56.76197 33004 ft 510 kts 103°
2026-05-09 10:26 25.02505 56.83871 33000 ft 511 kts 103°
2026-05-09 10:26 25.01044 56.91508 33002 ft 511 kts 103°
2026-05-09 10:27 24.99575 56.99185 33000 ft 511 kts 103°
2026-05-09 10:27 24.98100 57.06845 32999 ft 511 kts 104°
2026-05-09 10:28 24.96627 57.14449 32997 ft 510 kts 103°
2026-05-09 10:28 24.95145 57.22083 33005 ft 509 kts 103°
2026-05-09 10:29 24.93662 57.29709 32997 ft 509 kts 104°
2026-05-09 10:29 24.92173 57.37340 33005 ft 509 kts 104°
2026-05-09 10:30 24.90681 57.44971 33003 ft 509 kts 103°
2026-05-09 10:30 24.89184 57.52598 33000 ft 510 kts 103°
2026-05-09 10:31 24.87684 57.60230 33005 ft 510 kts 104°
2026-05-09 10:31 24.86186 57.67819 32999 ft 510 kts 103°
2026-05-09 10:32 24.84676 57.75461 33001 ft 510 kts 104°
2026-05-09 10:32 24.83228 57.83110 33003 ft 510 kts 100°
2026-05-09 10:33 24.82532 57.90898 33005 ft 511 kts 96°
2026-05-09 10:33 24.81961 57.98694 33001 ft 511 kts 96°
2026-05-09 10:34 24.81355 58.06488 33003 ft 511 kts 96°
2026-05-09 10:34 24.80401 58.18142 32998 ft 511 kts 96°
2026-05-09 10:35 24.79754 58.25944 33004 ft 511 kts 97°
2026-05-09 10:35 24.79105 58.33737 32998 ft 511 kts 96°
2026-05-09 10:36 24.78453 58.41531 33002 ft 511 kts 97°
2026-05-09 10:36 24.77797 58.49329 33000 ft 511 kts 96°
2026-05-09 10:37 24.77137 58.57116 33002 ft 511 kts 97°
2026-05-09 10:37 24.76474 58.64900 33002 ft 511 kts 96°
2026-05-09 10:38 24.75805 58.72693 32999 ft 511 kts 97°
2026-05-09 10:38 24.75139 58.80424 33003 ft 511 kts 96°
2026-05-09 10:39 24.74462 58.88218 32998 ft 511 kts 97°
2026-05-09 10:39 24.73783 58.96001 33003 ft 511 kts 97°
2026-05-09 10:40 24.73098 59.03793 32999 ft 511 kts 96°
2026-05-09 10:40 24.72415 59.11540 33005 ft 511 kts 97°
2026-05-09 10:41 24.71722 59.19318 33000 ft 511 kts 96°
2026-05-09 10:41 24.71026 59.27113 33003 ft 511 kts 97°
2026-05-09 10:42 24.70330 59.34854 33000 ft 511 kts 96°
2026-05-09 10:42 24.69627 59.42632 33002 ft 511 kts 97°
2026-05-09 10:43 24.68919 59.50419 33001 ft 511 kts 96°
2026-05-09 10:43 24.68208 59.58207 33002 ft 511 kts 97°
2026-05-09 10:44 24.67493 59.65983 33002 ft 511 kts 97°
2026-05-09 10:44 24.66778 59.73715 33002 ft 511 kts 97°
2026-05-09 10:46 24.64963 59.93148 33004 ft 511 kts 97°
2026-05-09 10:46 24.64230 60.00924 32998 ft 511 kts 97°
2026-05-09 10:47 24.63497 60.08651 33004 ft 511 kts 97°
2026-05-09 10:47 24.62754 60.16437 33000 ft 511 kts 97°
2026-05-09 10:48 24.62010 60.24208 33003 ft 511 kts 98°
2026-05-09 10:48 24.61260 60.31985 33002 ft 511 kts 97°
2026-05-09 10:49 24.60507 60.39753 33002 ft 511 kts 98°
2026-05-09 10:49 24.59750 60.47525 33001 ft 511 kts 97°
2026-05-09 10:50 24.58990 60.55288 32999 ft 511 kts 97°
2026-05-09 10:50 24.58278 60.63020 33007 ft 511 kts 94°
2026-05-09 10:51 24.58230 60.70846 33000 ft 512 kts 90°
2026-05-09 10:51 24.58288 60.78676 33004 ft 512 kts 90°
2026-05-09 10:52 24.58307 60.86467 32999 ft 512 kts 91°
2026-05-09 10:52 24.58299 60.94292 33003 ft 512 kts 91°
2026-05-09 10:53 24.58284 61.02126 32999 ft 512 kts 91°
2026-05-09 10:53 24.58269 61.09969 33003 ft 512 kts 91°
2026-05-09 10:54 24.58250 61.17747 33000 ft 512 kts 91°
2026-05-09 10:54 24.58228 61.25571 33002 ft 512 kts 91°
2026-05-09 10:55 24.58817 61.33368 33005 ft 513 kts 79°
2026-05-09 10:55 24.60772 61.40905 33006 ft 513 kts 68°
2026-05-09 10:56 24.63203 61.46847 33000 ft 513 kts 63°
2026-05-09 10:56 24.66439 61.53837 33002 ft 513 kts 62°
2026-05-09 10:57 24.69697 61.60831 33002 ft 513 kts 62°
2026-05-09 10:57 24.72925 61.67847 33000 ft 514 kts 63°
2026-05-09 10:58 24.76132 61.74867 33002 ft 513 kts 63°
2026-05-09 10:58 24.79312 61.81857 33002 ft 513 kts 63°
2026-05-09 10:59 24.82504 61.88887 33000 ft 513 kts 63°
2026-05-09 10:59 24.85696 61.95928 33001 ft 513 kts 63°
2026-05-09 11:00 24.88882 62.02963 32999 ft 513 kts 63°
2026-05-09 11:00 24.92064 62.10001 32999 ft 513 kts 63°
2026-05-09 11:01 24.95247 62.17051 33001 ft 513 kts 63°
2026-05-09 11:01 24.98421 62.24095 33003 ft 513 kts 63°
2026-05-09 11:02 25.01576 62.31104 33000 ft 513 kts 63°
2026-05-09 11:02 25.04744 62.38155 33001 ft 513 kts 63°
2026-05-09 11:03 25.07910 62.45212 33001 ft 513 kts 63°
2026-05-09 11:03 25.11075 62.52279 33002 ft 513 kts 63°
2026-05-09 11:04 25.14234 62.59343 33002 ft 513 kts 63°
2026-05-09 11:04 25.17393 62.66419 33001 ft 513 kts 64°
2026-05-09 11:05 25.20546 62.73491 33002 ft 513 kts 63°
2026-05-09 11:05 25.23681 62.80534 33001 ft 513 kts 63°
2026-05-09 11:06 25.26830 62.87621 33002 ft 513 kts 64°
2026-05-09 11:06 25.29973 62.94704 33000 ft 513 kts 63°
2026-05-09 11:07 25.33119 63.01807 33002 ft 513 kts 63°
2026-05-09 11:07 25.36238 63.08860 33000 ft 514 kts 64°
2026-05-09 11:08 25.39375 63.15965 33003 ft 513 kts 63°
2026-05-09 11:08 25.42507 63.23068 33000 ft 514 kts 63°
2026-05-09 11:09 25.45639 63.30184 33002 ft 514 kts 64°
2026-05-09 11:09 25.48746 63.37256 33002 ft 514 kts 64°
2026-05-09 11:10 25.51871 63.44380 33002 ft 514 kts 64°
2026-05-09 11:10 25.54994 63.51508 33001 ft 514 kts 64°
2026-05-09 11:11 25.58113 63.58640 33001 ft 514 kts 64°
2026-05-09 11:11 25.61208 63.65731 33001 ft 514 kts 63°
2026-05-09 11:12 25.64322 63.72874 33000 ft 514 kts 64°
2026-05-09 11:12 25.67429 63.80015 33003 ft 514 kts 64°
2026-05-09 11:13 25.70536 63.87166 33000 ft 515 kts 64°
2026-05-09 11:13 25.73641 63.94326 33002 ft 515 kts 64°
2026-05-09 11:14 25.76750 64.01505 33001 ft 516 kts 64°
2026-05-09 11:14 25.79855 64.08687 33003 ft 517 kts 64°
2026-05-09 11:15 25.82961 64.15885 33001 ft 517 kts 64°
2026-05-09 11:15 25.86067 64.23092 33003 ft 518 kts 64°
2026-05-09 11:16 25.89154 64.30270 33002 ft 518 kts 64°
2026-05-09 11:16 25.92256 64.37494 33001 ft 518 kts 64°
2026-05-09 11:17 25.95354 64.44721 33002 ft 518 kts 64°
2026-05-09 11:17 25.98451 64.51956 32999 ft 518 kts 64°
2026-05-09 11:18 26.01539 64.59185 33001 ft 517 kts 64°
2026-05-09 11:18 26.04623 64.66414 33001 ft 517 kts 64°
2026-05-09 11:19 26.07707 64.73659 33002 ft 517 kts 64°
2026-05-09 11:19 26.10765 64.80853 33002 ft 517 kts 64°
2026-05-09 11:20 26.13838 64.88091 33001 ft 517 kts 64°
2026-05-09 11:20 26.15373 64.91715 32999 ft 518 kts 65°
2026-05-09 11:21 26.18010 64.97944 33001 ft 518 kts 64°
2026-05-09 11:21 26.21077 65.05199 33001 ft 518 kts 64°
2026-05-09 11:22 26.24125 65.12423 33002 ft 518 kts 64°
2026-05-09 11:22 26.27189 65.19697 33001 ft 518 kts 64°
2026-05-09 11:23 26.30243 65.26961 33003 ft 517 kts 64°
2026-05-09 11:23 26.33290 65.34219 32998 ft 516 kts 65°
2026-05-09 11:24 26.36332 65.41480 33000 ft 516 kts 64°
2026-05-09 11:24 26.39370 65.48742 33001 ft 516 kts 64°
2026-05-09 11:25 26.42381 65.55952 33000 ft 516 kts 65°
2026-05-09 11:25 26.45411 65.63222 33001 ft 516 kts 64°
2026-05-09 11:26 26.48434 65.70483 33001 ft 516 kts 64°
2026-05-09 11:26 26.51452 65.77748 33002 ft 516 kts 65°
2026-05-09 11:27 26.54471 65.85029 33000 ft 516 kts 65°
2026-05-09 11:27 26.57489 65.92319 33000 ft 516 kts 64°
2026-05-09 11:28 26.60485 65.99569 33002 ft 517 kts 65°
2026-05-09 11:28 26.63499 66.06875 33001 ft 518 kts 64°
2026-05-09 11:29 26.66516 66.14202 33002 ft 519 kts 65°
2026-05-09 11:29 26.69532 66.21538 33006 ft 519 kts 65°
2026-05-09 11:30 26.72549 66.28891 33007 ft 520 kts 65°
2026-05-09 11:30 26.75564 66.36253 33005 ft 521 kts 64°
2026-05-09 11:31 26.78581 66.43633 32997 ft 520 kts 65°
2026-05-09 11:31 26.81585 66.50993 33004 ft 520 kts 65°
2026-05-09 11:32 26.84573 66.58326 32998 ft 520 kts 65°
2026-05-09 11:32 26.87578 66.65716 32997 ft 520 kts 65°
2026-05-09 11:33 26.90571 66.73089 33002 ft 519 kts 65°
2026-05-09 11:33 26.95030 66.84099 33002 ft 519 kts 65°
2026-05-09 11:34 26.98006 66.91464 33004 ft 518 kts 65°
2026-05-09 11:34 27.00982 66.98843 32981 ft 519 kts 65°
2026-05-09 11:35 27.03947 67.06206 33012 ft 516 kts 66°
2026-05-09 11:35 27.06893 67.13533 32995 ft 514 kts 66°
2026-05-09 11:36 27.09895 67.20786 33000 ft 511 kts 62°
2026-05-09 11:36 27.13416 67.27688 33003 ft 508 kts 60°
2026-05-09 11:37 27.16494 67.34755 33004 ft 505 kts 65°
2026-05-09 11:37 27.18959 67.42125 33008 ft 503 kts 71°
2026-05-09 11:38 27.21365 67.49499 32999 ft 502 kts 68°
2026-05-09 11:38 27.24079 67.56723 33001 ft 501 kts 66°
2026-05-09 11:39 27.26930 67.63861 33000 ft 499 kts 66°
2026-05-09 11:40 27.31260 67.74685 31560 ft 520 kts 66°
2026-05-09 11:40 27.32746 67.78434 30830 ft 529 kts 66°
2026-05-09 11:40 27.34246 67.82233 30127 ft 536 kts 66°
2026-05-09 11:40 27.35746 67.86036 29530 ft 539 kts 66°
2026-05-09 11:41 27.37263 67.89889 29167 ft 537 kts 66°
2026-05-09 11:41 27.38773 67.93727 29016 ft 535 kts 66°
2026-05-09 11:41 27.40293 67.97591 29003 ft 531 kts 66°
2026-05-09 11:42 27.43240 68.05096 28991 ft 524 kts 66°
2026-05-09 11:42 27.46169 68.12566 28993 ft 519 kts 66°
2026-05-09 11:43 27.49080 68.20003 28993 ft 516 kts 66°
2026-05-09 11:43 27.51963 68.27384 28995 ft 514 kts 66°
2026-05-09 11:44 27.54813 68.34697 28999 ft 512 kts 66°
2026-05-09 11:44 27.57667 68.42030 29001 ft 510 kts 66°
2026-05-09 11:45 27.60510 68.49351 29001 ft 509 kts 66°
2026-05-09 11:45 27.62886 68.55480 29001 ft 509 kts 66°
2026-05-09 11:46 27.65714 68.62788 29001 ft 508 kts 66°
2026-05-09 11:46 27.68520 68.70050 29001 ft 507 kts 66°
2026-05-09 11:47 27.71335 68.77349 29001 ft 507 kts 66°
2026-05-09 11:47 27.74323 68.84564 28998 ft 507 kts 64°
2026-05-09 11:48 27.77505 68.91663 29003 ft 507 kts 63°
2026-05-09 11:48 27.80694 68.98760 29001 ft 507 kts 63°
2026-05-09 11:49 27.83859 69.05883 29002 ft 507 kts 63°
2026-05-09 11:49 27.87007 69.13017 29001 ft 507 kts 64°
2026-05-09 11:50 27.90125 69.20100 29001 ft 507 kts 64°
2026-05-09 11:50 27.93262 69.27234 29002 ft 507 kts 64°
2026-05-09 11:51 27.96400 69.34379 29001 ft 507 kts 64°
2026-05-09 11:51 27.99534 69.41527 29002 ft 507 kts 64°
2026-05-09 11:52 28.02660 69.48672 29001 ft 507 kts 64°
2026-05-09 11:52 28.05787 69.55830 29002 ft 507 kts 64°
2026-05-09 11:53 28.08889 69.62944 29001 ft 507 kts 64°
2026-05-09 11:53 28.12004 69.70101 29001 ft 507 kts 64°
2026-05-09 11:54 28.15116 69.77264 29001 ft 507 kts 64°
2026-05-09 11:54 28.18229 69.84440 29001 ft 507 kts 64°
2026-05-09 11:55 28.21337 69.91618 29001 ft 507 kts 64°
2026-05-09 11:56 28.30614 70.13126 29001 ft 507 kts 64°
2026-05-09 11:57 28.33704 70.20313 29001 ft 507 kts 64°
2026-05-09 11:57 28.37138 70.27289 28996 ft 507 kts 56°
2026-05-09 11:58 28.41598 70.33481 29009 ft 506 kts 47°
2026-05-09 11:58 28.46433 70.39301 28999 ft 506 kts 46°
2026-05-09 11:59 28.51237 70.45111 29002 ft 506 kts 47°
2026-05-09 11:59 28.56035 70.50982 29001 ft 507 kts 47°
2026-05-09 12:00 28.60820 70.56870 29002 ft 507 kts 47°
2026-05-09 12:00 28.65602 70.62765 29001 ft 507 kts 47°
2026-05-09 12:01 28.70385 70.68665 29001 ft 507 kts 47°
2026-05-09 12:01 28.75165 70.74570 29001 ft 507 kts 47°
2026-05-09 12:02 28.79950 70.80488 29001 ft 507 kts 47°
2026-05-09 12:02 28.84733 70.86413 29001 ft 507 kts 47°
2026-05-09 12:03 28.89481 70.92304 29001 ft 507 kts 47°
2026-05-09 12:03 28.94254 70.98233 29001 ft 507 kts 47°
2026-05-09 12:04 28.99023 71.04167 29001 ft 507 kts 47°
2026-05-09 12:04 29.03790 71.10107 29001 ft 507 kts 47°
2026-05-09 12:05 29.08559 71.16058 29001 ft 507 kts 47°
2026-05-09 12:05 29.13320 71.22008 29001 ft 507 kts 47°
2026-05-09 12:06 29.18062 71.27944 29001 ft 507 kts 47°
2026-05-09 12:06 29.22818 71.33905 29001 ft 507 kts 47°
2026-05-09 12:07 29.27570 71.39872 29001 ft 507 kts 47°
2026-05-09 12:07 29.32306 71.45859 29002 ft 507 kts 48°
2026-05-09 12:08 29.36994 71.51898 29001 ft 507 kts 48°
2026-05-09 12:08 29.41674 71.57949 29001 ft 507 kts 48°
2026-05-09 12:09 29.46364 71.64005 29001 ft 507 kts 48°
2026-05-09 12:09 29.51053 71.70064 29001 ft 507 kts 48°
2026-05-09 12:10 29.60396 71.82159 29001 ft 507 kts 48°
2026-05-09 12:11 29.65073 71.88229 29001 ft 507 kts 49°
2026-05-09 12:11 29.69753 71.94312 29001 ft 507 kts 49°
2026-05-09 12:12 29.74399 72.00361 29002 ft 507 kts 49°
2026-05-09 12:12 29.79068 72.06450 29001 ft 507 kts 49°
2026-05-09 12:13 29.83740 72.12551 29001 ft 507 kts 49°
2026-05-09 12:13 29.87963 72.19018 28987 ft 507 kts 67°
2026-05-09 12:14 29.90160 72.26676 29003 ft 503 kts 72°
2026-05-09 12:14 29.92329 72.34349 29006 ft 504 kts 71°
2026-05-09 12:15 29.94614 72.41993 28995 ft 504 kts 71°
2026-05-09 12:15 29.95767 72.45806 28723 ft 503 kts 71°
2026-05-09 12:15 29.96917 72.49619 28223 ft 504 kts 71°
2026-05-09 12:15 29.98050 72.53395 27687 ft 506 kts 71°
2026-05-09 12:16 29.99204 72.57247 27106 ft 508 kts 71°
2026-05-09 12:16 30.00357 72.61096 26668 ft 506 kts 70°
2026-05-09 12:16 30.01818 72.64771 26324 ft 501 kts 57°
2026-05-09 12:16 30.04025 72.67828 26097 ft 494 kts 46°
2026-05-09 12:17 30.06420 72.70676 25923 ft 495 kts 46°
2026-05-09 12:17 30.08797 72.73580 25727 ft 497 kts 47°
2026-05-09 12:17 30.11129 72.76521 25527 ft 495 kts 48°
2026-05-09 12:17 30.13425 72.79479 25325 ft 493 kts 48°
2026-05-09 12:18 30.15701 72.82437 25123 ft 492 kts 48°
2026-05-09 12:18 30.17940 72.85344 24925 ft 490 kts 48°
2026-05-09 12:18 30.20203 72.88273 24786 ft 486 kts 48°
2026-05-09 12:18 30.22446 72.91180 24708 ft 483 kts 48°
2026-05-09 12:19 30.24673 72.94070 24628 ft 480 kts 48°
2026-05-09 12:19 30.26890 72.96950 24550 ft 479 kts 48°
2026-05-09 12:19 30.29102 72.99827 24476 ft 478 kts 48°
2026-05-09 12:19 30.31319 73.02714 24404 ft 479 kts 48°
2026-05-09 12:20 30.33528 73.05594 24332 ft 480 kts 48°
2026-05-09 12:20 30.35752 73.08493 24260 ft 481 kts 48°
2026-05-09 12:20 30.37974 73.11393 24188 ft 482 kts 48°
2026-05-09 12:20 30.40199 73.14299 24115 ft 482 kts 48°
2026-05-09 12:21 30.42425 73.17208 24042 ft 483 kts 48°
2026-05-09 12:21 30.44651 73.20120 23968 ft 483 kts 48°
2026-05-09 12:21 30.46876 73.23032 23893 ft 482 kts 49°
2026-05-09 12:21 30.49100 73.25945 23757 ft 483 kts 49°
2026-05-09 12:22 30.51334 73.28873 23504 ft 482 kts 49°
2026-05-09 12:22 30.53535 73.31761 22982 ft 477 kts 49°
2026-05-09 12:22 30.55726 73.34636 22298 ft 472 kts 49°
2026-05-09 12:22 30.57864 73.37445 21624 ft 468 kts 49°
2026-05-09 12:23 30.60010 73.40266 20984 ft 464 kts 49°
2026-05-09 12:23 30.62132 73.43058 20380 ft 458 kts 49°
2026-05-09 12:23 30.64225 73.45814 19790 ft 453 kts 49°
2026-05-09 12:23 30.66303 73.48551 19199 ft 448 kts 49°
2026-05-09 12:24 30.68358 73.51262 18589 ft 444 kts 49°
2026-05-09 12:24 30.70393 73.53946 17951 ft 441 kts 49°
2026-05-09 12:24 30.72412 73.56611 17390 ft 436 kts 49°
2026-05-09 12:24 30.74400 73.59239 16845 ft 430 kts 49°
2026-05-09 12:25 30.76366 73.61838 16283 ft 426 kts 49°
2026-05-09 12:25 30.78306 73.64405 15824 ft 419 kts 49°
2026-05-09 12:25 30.80214 73.66930 15360 ft 412 kts 49°
2026-05-09 12:25 30.82096 73.69423 14827 ft 408 kts 49°
2026-05-09 12:26 30.83962 73.71896 14256 ft 405 kts 49°
2026-05-09 12:26 30.85788 73.74319 13699 ft 402 kts 49°
2026-05-09 12:26 30.87625 73.76757 13126 ft 399 kts 49°
2026-05-09 12:26 30.89445 73.79174 12593 ft 395 kts 49°
2026-05-09 12:27 30.91246 73.81567 12062 ft 391 kts 49°
2026-05-09 12:27 30.93034 73.83944 11539 ft 387 kts 49°
2026-05-09 12:27 30.94777 73.86263 11430 ft 372 kts 49°
2026-05-09 12:27 30.96445 73.88485 11327 ft 357 kts 49°
2026-05-09 12:28 30.98052 73.90625 11229 ft 343 kts 49°
2026-05-09 12:28 30.99590 73.92674 11137 ft 330 kts 49°
2026-05-09 12:28 31.01074 73.94653 11025 ft 318 kts 49°
2026-05-09 12:28 31.02505 73.96562 10852 ft 308 kts 49°
2026-05-09 12:29 31.03888 73.98409 10562 ft 303 kts 49°
2026-05-09 12:29 31.05270 74.00254 10176 ft 301 kts 49°
2026-05-09 12:29 31.06646 74.02093 9778 ft 300 kts 49°
2026-05-09 12:29 31.08018 74.03927 9400 ft 298 kts 49°
2026-05-09 12:30 31.09377 74.05745 9028 ft 296 kts 49°
2026-05-09 12:30 31.10726 74.07550 8654 ft 294 kts 49°
2026-05-09 12:30 31.13384 74.11108 7901 ft 291 kts 49°
2026-05-09 12:31 31.14707 74.12881 7525 ft 289 kts 49°
2026-05-09 12:31 31.17327 74.16394 6770 ft 285 kts 49°
2026-05-09 12:31 31.18624 74.18135 6392 ft 283 kts 49°
2026-05-09 12:32 31.19913 74.19865 6016 ft 281 kts 49°
2026-05-09 12:32 31.21182 74.21569 5804 ft 273 kts 49°
2026-05-09 12:32 31.22403 74.23211 5649 ft 262 kts 49°
2026-05-09 12:32 31.23576 74.24787 5435 ft 254 kts 49°
2026-05-09 12:33 31.24724 74.26331 5130 ft 249 kts 49°
2026-05-09 12:33 31.25856 74.27853 4738 ft 247 kts 49°
2026-05-09 12:33 31.26615 74.28875 4472 ft 247 kts 49°
2026-05-09 12:33 31.27713 74.30353 4232 ft 238 kts 49°
2026-05-09 12:34 31.28770 74.31778 4072 ft 226 kts 49°
2026-05-09 12:34 31.29794 74.33157 4015 ft 224 kts 49°
2026-05-09 12:34 31.30824 74.34543 3939 ft 226 kts 49°
2026-05-09 12:34 31.31834 74.35905 3774 ft 216 kts 49°
2026-05-09 12:35 31.33089 74.37598 3603 ft 202 kts 49°
2026-05-09 12:35 31.33714 74.38441 3579 ft 203 kts 49°
2026-05-09 12:35 31.34733 74.39562 3476 ft 202 kts 26°
2026-05-09 12:35 31.36081 74.39926 3407 ft 199 kts
2026-05-09 12:36 31.37477 74.40122 3278 ft 205 kts
2026-05-09 12:36 31.38887 74.40229 2997 ft 204 kts
2026-05-09 12:36 31.40257 74.40258 2780 ft 194 kts
2026-05-09 12:36 31.41591 74.40280 2483 ft 186 kts
2026-05-09 12:37 31.42836 74.40301 2238 ft 170 kts
2026-05-09 12:37 31.43967 74.40320 2039 ft 158 kts
2026-05-09 12:37 31.45066 74.40339 1830 ft 158 kts
2026-05-09 12:37 31.46168 74.40358 1621 ft 158 kts
2026-05-09 12:38 31.47271 74.40377 1408 ft 158 kts
2026-05-09 12:38 31.48364 74.40396 1199 ft 157 kts
2026-05-09 12:38 31.49460 74.40416 1179 ft 159 kts
2026-05-09 12:38 31.50562 74.40434 1501 ft 161 kts
2026-05-09 12:39 31.51689 74.40458 1934 ft 167 kts
2026-05-09 12:39 31.52904 74.40486 2347 ft 183 kts
2026-05-09 12:39 31.54243 74.40517 2740 ft 202 kts
2026-05-09 12:39 31.55713 74.40551 3143 ft 223 kts
2026-05-09 12:40 31.57334 74.40514 3202 ft 235 kts 346°
2026-05-09 12:40 31.58697 74.39564 3237 ft 230 kts 306°
2026-05-09 12:40 31.59482 74.37952 3231 ft 228 kts 288°
2026-05-09 12:40 31.59645 74.36120 3224 ft 227 kts 261°
2026-05-09 12:41 31.59219 74.34381 3216 ft 226 kts 238°
2026-05-09 12:41 31.58100 74.33115 3228 ft 227 kts 205°
2026-05-09 12:41 31.56563 74.32757 3231 ft 227 kts 176°
2026-05-09 12:41 31.54986 74.33004 3238 ft 231 kts 170°
2026-05-09 12:42 31.53426 74.33456 3225 ft 228 kts 163°
2026-05-09 12:42 31.51969 74.33989 3251 ft 211 kts 163°
2026-05-09 12:42 31.50610 74.34482 3210 ft 198 kts 163°
2026-05-09 12:42 31.49270 74.34924 3227 ft 201 kts 168°
2026-05-09 12:43 31.47892 74.35068 3219 ft 198 kts 184°
2026-05-09 12:43 31.46527 74.34898 3228 ft 197 kts 188°
2026-05-09 12:43 31.45166 74.34692 3226 ft 197 kts 188°
2026-05-09 12:43 31.43817 74.34485 3226 ft 197 kts 188°
2026-05-09 12:44 31.42463 74.34275 3254 ft 195 kts 188°
2026-05-09 12:44 31.41131 74.34067 3221 ft 190 kts 188°
2026-05-09 12:44 31.39856 74.33868 3204 ft 181 kts 188°
2026-05-09 12:44 31.38614 74.33764 3148 ft 178 kts 171°
2026-05-09 12:45 31.37542 74.34435 2803 ft 179 kts 128°
2026-05-09 12:45 31.37142 74.35773 2607 ft 177 kts 87°
2026-05-09 12:45 31.37561 74.37106 2642 ft 178 kts 56°
2026-05-09 12:45 31.38257 74.38297 2744 ft 178 kts 56°
2026-05-09 12:46 31.38995 74.39473 2651 ft 179 kts 43°
2026-05-09 12:46 31.40084 74.40044 2542 ft 168 kts
2026-05-09 12:46 31.41195 74.40114 2659 ft 161 kts
2026-05-09 12:46 31.42338 74.40277 2555 ft 167 kts
2026-05-09 12:47 31.43475 74.40312 2277 ft 166 kts
2026-05-09 12:47 31.44607 74.40326 1939 ft 158 kts
2026-05-09 12:47 31.45695 74.40344 1700 ft 158 kts
2026-05-09 12:47 31.46798 74.40370 1474 ft 158 kts
2026-05-09 12:48 31.47901 74.40392 1280 ft 158 kts
2026-05-09 12:48 31.49012 74.40407 1075 ft 160 kts
2026-05-09 12:48 31.50132 74.40426 862 ft 161 kts
2026-05-09 12:48 31.51235 74.40444 721 ft 151 kts
2026-05-09 12:49 31.52154 74.40460 723 ft 107 kts
2026-05-09 12:49 31.52675 74.40467 722 ft 34 kts
2026-05-09 12:49 31.52801 74.40524 722 ft 16 kts 68°
2026-05-09 12:49 31.52794 74.40647 722 ft 16 kts 114°